Weather History for OTBD - May, 2012

Change the Weather History Date:

Friday, May 11, 2012

  Actual Average Record
Temperature  
Mean Temperature 96 °F -  
Max Temperature 108 °F 103 °F - ()
Min Temperature 83 °F 79 °F - ()
Cooling Degree Days 30    
Growing Degree Days 46 (Base 50)    
Moisture  
Dew Point 66 °F    
Average Humidity 39    
Maximum Humidity 58    
Minimum Humidity 17    
Precipitation  
Precipitation 0.00 in 0.00 in - ()
Sea Level Pressure  
Sea Level Pressure 29.77 in    
Wind  
Wind Speed 4 mph ()    
Max Wind Speed 12 mph    
Max Gust Speed -    
Visibility 6.2 miles    
Events      
T = Trace of Precipitation, MM = Missing Value Source: Averaged Metar Reports

Daily Weather History Graph

Daily Weather History Graph

Search for Another Location

Airport or City:

Trip Planner

Search our weather history database for the weather conditions in past years. The results will help you decide how hot, cold, wet, or windy it might be!

Date:

Astronomy

May. 11, 2012 Rise Set
Actual Time 4:51 AM AST 6:09 PM AST
Civil Twilight 4:26 AM AST 6:34 PM AST
Nautical Twilight 3:57 AM AST 7:03 PM AST
Astronomical Twilight 3:26 AM AST 7:33 PM AST
Moon 11:19 PM AST (5/11) 9:53 AM AST (5/11)
Length of Visible Light 14h 07m
Length of Day
13h 18m
Waning Gibbous, 66% of the Moon is Illuminated
May 11
Waning Gibbous
May 13
Last Quarter
May 21
New
May 28
First Quarter
Jun 4
Full

Hourly Weather History & Observations

Time (AST) Temp. Heat Index Dew Point Humidity Pressure Visibility Wind Dir Wind Speed Gust Speed Precip Events Conditions
12:00 AM 89.6 °F 94.7 °F 69.8 °F 52% 29.77 in - ENE 3.5 mph - N/A   Clear
1:00 AM 87.8 °F 93.8 °F 71.6 °F 58% 29.77 in - Variable 1.2 mph - N/A   Clear
1:30 AM 87.8 °F 93.8 °F 71.6 °F 58% 29.77 in - SSW 3.5 mph - N/A   Clear
2:00 AM 87.8 °F 93.8 °F 71.6 °F 58% 29.77 in - Calm Calm - N/A   Clear
2:30 AM 87.8 °F 93.8 °F 71.6 °F 58% 29.77 in - Calm Calm - N/A   Clear
3:00 AM 87 °F - 71 °F 50% 29.78 in 6 mi 2.3 mph - -   Scattered Clouds
3:00 AM 87.8 °F 93.8 °F 71.6 °F 58% 29.77 in - Variable 2.3 mph - N/A   Clear
3:30 AM 87.8 °F 91.4 °F 68.0 °F 52% 29.77 in - Variable 2.3 mph - N/A   Clear
4:00 AM 84.2 °F 86.6 °F 66.2 °F 55% 29.77 in 5.6 mi SSE 8.1 mph - N/A   Unknown
4:30 AM 86.0 °F 86.6 °F 62.6 °F 45% 29.80 in 5.6 mi SSW 4.6 mph - N/A   Unknown
5:00 AM 86.0 °F 88.2 °F 66.2 °F 51% 29.80 in 5.6 mi West 3.5 mph - N/A   Unknown
5:30 AM 87.8 °F 90.4 °F 66.2 °F 49% 29.80 in 5.0 mi NW 3.5 mph - N/A   Unknown
6:00 AM 87.8 °F 91.4 °F 68.0 °F 52% 29.80 in 5.6 mi Variable 1.2 mph - N/A   Unknown
6:30 AM 89.6 °F 93.4 °F 68.0 °F 49% 29.83 in - Variable 1.2 mph - N/A   Clear
7:00 AM 91.4 °F 95.4 °F 68.0 °F 46% 29.83 in - North 3.5 mph - N/A   Clear
7:30 AM 93.2 °F 97.7 °F 68.0 °F 44% 29.83 in - WSW 4.6 mph - N/A   Clear
8:00 AM 95.0 °F 97.0 °F 64.4 °F 36% 29.83 in - West 4.6 mph - N/A   Clear
8:30 AM 96.8 °F 98.0 °F 62.6 °F 32% 29.83 in - WSW 4.6 mph - N/A   Clear
9:00 AM 98 °F - 63 °F 22% 29.85 in 7 mi WNW 5.8 mph - -  
9:00 AM 98.6 °F 100.0 °F 62.6 °F 30% 29.83 in - WNW 5.8 mph - N/A   Clear
9:30 AM 100.4 °F 101.3 °F 60.8 °F 27% 29.83 in - West 3.5 mph - N/A   Clear
10:00 AM 100.4 °F 102.4 °F 62.6 °F 29% 29.83 in - North 6.9 mph - N/A   Clear
10:30 AM 102.2 °F 105.5 °F 64.4 °F 29% 29.83 in - North 8.1 mph - N/A   Clear
11:00 AM 104.0 °F 105.3 °F 60.8 °F 24% 29.80 in - NNE 4.6 mph - N/A   Clear
11:30 AM 104.0 °F 104.6 °F 59.0 °F 23% 29.80 in - North 3.5 mph - N/A   Clear
12:00 PM 105.8 °F 105.5 °F 57.2 °F 20% 29.80 in - NNE 6.9 mph - N/A   Clear
12:30 PM 104.0 °F 103.4 °F 57.2 °F 21% 29.80 in - NNE 6.9 mph - N/A   Clear
1:00 PM 105.8 °F 104.9 °F 55.4 °F 19% 29.77 in - North 9.2 mph - N/A   Clear
1:30 PM 105.8 °F 104.9 °F 55.4 °F 19% 29.77 in - NNE 9.2 mph - N/A   Clear
2:00 PM 107.6 °F 106.1 °F 53.6 °F 17% 29.77 in - NE 8.1 mph - N/A   Clear
2:30 PM 107.6 °F 106.8 °F 55.4 °F 18% 29.74 in - ENE 9.2 mph - N/A   Clear
3:00 PM 104 °F - 62 °F 17% 29.75 in 9 mi NE 11.5 mph - -  
3:00 PM 104.0 °F 106.6 °F 62.6 °F 26% 29.74 in - NE 11.5 mph - N/A   Clear
3:30 PM 100.4 °F 104.9 °F 66.2 °F 33% 29.74 in - NNE 11.5 mph - N/A   Clear
4:00 PM 100.4 °F 107.8 °F 69.8 °F 37% 29.74 in - NE 10.4 mph - N/A   Clear
4:30 PM 98.6 °F 100.0 °F 62.6 °F 30% 29.74 in - NE 8.1 mph - N/A   Clear
5:00 PM 98.6 °F 100.0 °F 62.6 °F 30% 29.74 in - NE 9.2 mph - N/A   Clear
5:30 PM 96.8 °F 99.0 °F 64.4 °F 34% 29.74 in - NNE 8.1 mph - N/A   Clear
6:00 PM 95.0 °F 97.0 °F 64.4 °F 36% 29.74 in - NNE 8.1 mph - N/A   Clear
6:30 PM 95.0 °F 97.0 °F 64.4 °F 36% 29.74 in - NNE 4.6 mph - N/A   Clear
7:00 PM 93.2 °F 96.2 °F 66.2 °F 41% 29.74 in - North 4.6 mph - N/A   Clear
7:30 PM 93.2 °F 97.7 °F 68.0 °F 44% 29.74 in - NNE 4.6 mph - N/A   Clear
8:00 PM 91.4 °F 98.4 °F 71.6 °F 52% 29.74 in - NNE 3.5 mph - N/A   Clear
8:30 PM 91.4 °F 100.1 °F 73.4 °F 55% 29.74 in - Variable 2.3 mph - N/A   Clear
9:00 PM 91 °F - 73 °F 47% 29.76 in 6 mi East 3.5 mph - -  
9:00 PM 91.4 °F 100.1 °F 73.4 °F 55% 29.74 in - East 3.5 mph - N/A   Clear
9:30 PM 93.2 °F 100.5 °F 71.6 °F 49% 29.74 in - Variable 2.3 mph - N/A   Clear
10:00 PM 93.2 °F 100.5 °F 71.6 °F 49% 29.74 in - WSW 3.5 mph - N/A   Clear
10:30 PM 93.2 °F 100.5 °F 71.6 °F 49% 29.74 in - SW 5.8 mph - N/A   Clear
11:00 PM 93.2 °F 97.7 °F 68.0 °F 44% 29.74 in - SW 4.6 mph - N/A   Clear
11:30 PM 93.2 °F 97.7 °F 68.0 °F 44% 29.71 in - SW 4.6 mph - N/A   Clear